Location: Clover
(42.5131°N, 114.6874°W)
Time: 12:53:13
(UTC+00:00)

ARIANE 6 FM1 Upper Stage - Pass Details

Date: 24 January 2026
Orbit: 522 x 609 km, 62.0° (Epoch: 11 February)

Event Time Altitude Azimuth Distance (km) Brightness Sun altitude
Rises 03:09:56 0° 250° (WSW) 2,704 7.3 -27.3°
Reaches altitude 10° 03:12:29 10° 264° (W) 1,800 6.2 -27.7°
Enters shadow 03:15:47 24° 319° (NW) 1,140 4.5 -28.3°
